Location: Macksville High School
(37.9611°N, 99.9654°W)
Time: 00:24:45
(UTC+00:00)

Cosmos 2333 Rocket - Pass Details

Date: 17 January 2021
Orbit: 838 x 863 km, 70.8° (Epoch: 07 March)

Event Time Altitude Azimuth Distance (km) Brightness Sun altitude
Exits shadow 12:42:44 - 232° (SW) 3,135 4.8 -13.9°
Reaches altitude 10° 12:44:46 10° 241° (WSW) 2,447 4.2 -13.5°
Maximum altitude 12:49:39 30° 302° (WNW) 1,471 2.9 -12.6°
Drops below altitude 10° 12:54:34 10° 2° (N) 2,464 4.5 -11.7°
Sets 12:57:20 0° 13° (NNE) 3,405 5.3 -11.1°
